Buckland, AK

2:03 PM AKST on February 20, 2017 (GMT -0900)
Buckland

Weather History for PABL - January, 2013

Change the Weather History Date:

Wednesday, January 23, 2013

  Actual Average (PASK) Record (PASK)
Temperature  
Mean Temperature -4 °F -  
Max Temperature 5 °F -1 °F 33 °F (2000)
Min Temperature -14 °F -10 °F -49 °F (2002)
Degree Days  
Heating Degree Days 70    
Moisture  
Dew Point -13 °F    
Average Humidity 63    
Maximum Humidity 100    
Minimum Humidity 36    
Precipitation  
Precipitation 0.00 in - - ()
Sea Level Pressure  
Sea Level Pressure 29.88 in    
Wind  
Wind Speed 5 mph (SE)    
Max Wind Speed 23 mph    
Max Gust Speed 29 mph    
Visibility 10 miles    
Events      
Averages and records for this station are not official NWS values.
T = Trace of Precipitation, MM = Missing Value Source: NWS Daily Summary

Daily Weather History Graph

Daily Weather History Graph

Search for Another Location

Airport or City:

Trip Planner

Search our weather history database for the weather conditions in past years. The results will help you decide how hot, cold, wet, or windy it might be!

Date:

Astronomy

Jan. 23, 2013 Rise Set
Actual Time 11:09 AM AKST 4:44 PM AKST
Civil Twilight 9:59 AM AKST 5:54 PM AKST
Nautical Twilight 8:52 AM AKST 7:01 PM AKST
Astronomical Twilight 7:52 AM AKST 8:02 PM AKST
Moon 1:33 PM AKST (1/23) 9:02 AM AKST (1/23)
Length of Visible Light 7h 54m
Length of Day
5h 34m
Waxing Gibbous, 90% of the Moon is Illuminated
Jan 23
Waxing Gibbous
Jan 26
Full
Feb 3
Last Quarter
Feb 9
New
Feb 17
First Quarter

Hourly Weather History & Observations

Time (AKST) Temp. Windchill Dew Point Humidity Pressure Visibility Wind Dir Wind Speed Gust Speed Precip Events Conditions
12:16 AM 3.2 °F -9.1 °F -2.2 °F 78% 29.86 in 10.0 mi South 6.9 mph - N/A   Unknown
12:36 AM 5.0 °F -4.1 °F -4.0 °F 66% 29.87 in 10.0 mi SE 4.6 mph - N/A   Unknown
12:56 AM 3.2 °F -11.3 °F -7.6 °F 61% 29.87 in 10.0 mi SSE 9.2 mph - N/A   Unknown
1:16 AM 3.2 °F -11.3 °F -5.8 °F 66% 29.86 in 10.0 mi ESE 9.2 mph - N/A   Unknown
1:36 AM 1.4 °F -11.3 °F -7.6 °F 66% 29.87 in 10.0 mi SE 6.9 mph - N/A   Unknown
1:56 AM -0.4 °F -12.0 °F -11.2 °F 60% 29.86 in 10.0 mi South 5.8 mph - N/A   Unknown
2:16 AM -2.2 °F - -7.6 °F 78% 29.86 in 10.0 mi Calm Calm - N/A   Unknown
2:36 AM -0.4 °F - -7.6 °F 72% 29.87 in 10.0 mi Calm Calm - N/A   Unknown
2:56 AM -0.4 °F -10.4 °F -11.2 °F 60% 29.87 in 10.0 mi SSE 4.6 mph - N/A   Unknown
3:16 AM -4.0 °F -12.4 °F -9.4 °F 78% 29.86 in 10.0 mi ENE 3.5 mph - N/A   Unknown
3:36 AM -2.2 °F -15.6 °F -7.6 °F 78% 29.86 in 10.0 mi SE 6.9 mph - N/A   Unknown
3:56 AM -4.0 °F - -7.6 °F 85% 29.86 in 10.0 mi Calm Calm - N/A   Unknown
4:16 AM -4.0 °F -12.4 °F -5.8 °F 92% 29.86 in 10.0 mi South 3.5 mph - N/A   Unknown
4:36 AM -5.8 °F - -20.2 °F 50% 29.86 in 10.0 mi Calm Calm - N/A   Unknown
4:56 AM -4.0 °F - -5.8 °F 92% 29.86 in 10.0 mi Calm Calm - N/A   Unknown
5:16 AM -4.0 °F -14.6 °F -11.2 °F 71% 29.85 in 10.0 mi SSE 4.6 mph - N/A   Unknown
5:36 AM -0.4 °F -12.0 °F -11.2 °F 60% 29.86 in 10.0 mi South 5.8 mph - N/A   Unknown
5:56 AM -0.4 °F - -7.6 °F 72% 29.86 in 10.0 mi Calm Calm - N/A   Unknown
6:16 AM -4.0 °F - -16.6 °F 55% 29.86 in 10.0 mi Calm Calm - N/A   Unknown
6:36 AM -4.0 °F -16.3 °F -5.8 °F 92% 29.86 in 10.0 mi NE 5.8 mph - N/A   Unknown
6:56 AM -4.0 °F - -18.4 °F 50% 29.86 in 10.0 mi Calm Calm - N/A   Unknown
7:16 AM -4.0 °F -12.4 °F -20.2 °F 46% 29.85 in 10.0 mi NNW 3.5 mph - N/A   Unknown
7:36 AM -9.4 °F - - N/A% 29.86 in 10.0 mi Calm Calm - N/A   Unknown
7:56 AM -7.6 °F -16.5 °F - N/A% 29.86 in 10.0 mi NNW 3.5 mph - N/A   Unknown
8:16 AM -7.6 °F -18.8 °F -18.4 °F 59% 29.86 in 10.0 mi NW 4.6 mph - N/A   Unknown
8:36 AM -9.4 °F - -18.4 °F 65% 29.85 in 10.0 mi Calm Calm - N/A   Unknown
8:56 AM -9.4 °F -20.9 °F -13.0 °F 84% 29.86 in 10.0 mi NNW 4.6 mph - N/A   Unknown
9:16 AM -9.4 °F - -25.6 °F 45% 29.86 in 10.0 mi Calm Calm - N/A   Unknown
9:36 AM -9.4 °F - - N/A% 29.86 in 10.0 mi Calm Calm - N/A   Unknown
9:56 AM -9.4 °F - -20.2 °F 59% 29.86 in 10.0 mi Calm Calm - N/A   Unknown
10:16 AM -9.4 °F - -9.4 °F 100% 29.87 in 10.0 mi Calm Calm - N/A   Unknown
10:36 AM -9.4 °F - -13.0 °F 84% 29.87 in 10.0 mi Calm Calm - N/A   Unknown
10:56 AM -13.0 °F - -25.6 °F 53% 29.87 in 10.0 mi Calm Calm - N/A   Unknown
11:16 AM -13.0 °F -27.0 °F - N/A% 29.87 in 10.0 mi South 5.8 mph - N/A   Unknown
11:36 AM -14.8 °F -29.1 °F - N/A% 29.87 in 10.0 mi SSE 5.8 mph - N/A   Unknown
11:56 AM -13.0 °F - - N/A% 29.87 in 10.0 mi Calm Calm - N/A   Unknown
12:16 PM -13.0 °F - -29.2 °F 44% 29.87 in 10.0 mi Calm Calm - N/A   Unknown
12:36 PM -11.2 °F -20.6 °F -11.2 °F 100% 29.87 in 10.0 mi SSE 3.5 mph - N/A   Unknown
12:56 PM -13.0 °F - -25.6 °F 53% 29.87 in 10.0 mi Calm Calm - N/A   Unknown
1:16 PM -11.2 °F -20.6 °F -11.2 °F 100% 29.87 in 10.0 mi SE 3.5 mph - N/A   Unknown
1:36 PM -13.0 °F - -25.6 °F 53% 29.87 in 10.0 mi Calm Calm - N/A   Unknown
1:56 PM -9.4 °F -20.9 °F -9.4 °F 100% 29.87 in 10.0 mi South 4.6 mph - N/A   Unknown
2:16 PM -11.2 °F -20.6 °F - N/A% 29.87 in 10.0 mi SSW 3.5 mph - N/A   Unknown
2:36 PM -5.8 °F -22.4 °F -20.2 °F 50% 29.86 in 10.0 mi East 9.2 mph - N/A   Unknown
2:56 PM 3.2 °F -14.6 °F -18.4 °F 36% 29.85 in 10.0 mi ENE 13.8 mph - N/A   Unknown
3:16 PM 3.2 °F -14.6 °F -9.4 °F 56% 29.86 in 10.0 mi ENE 13.8 mph - N/A   Unknown
3:36 PM 3.2 °F -15.9 °F -11.2 °F 51% 29.85 in 10.0 mi ENE 16.1 mph 19.6 mph N/A   Unknown
3:56 PM 3.2 °F -17.6 °F -7.6 °F 61% 29.85 in 10.0 mi East 19.6 mph 26.5 mph N/A   Unknown
4:16 PM 3.2 °F -16.5 °F -11.2 °F 51% 29.85 in 10.0 mi East 17.3 mph - N/A   Unknown
4:36 PM 3.2 °F -10.3 °F -11.2 °F 51% 29.86 in 10.0 mi East 8.1 mph - N/A   Unknown
4:56 PM 1.4 °F - -13.0 °F 51% 29.86 in 10.0 mi Calm Calm - N/A   Unknown
5:16 PM 3.2 °F - -9.4 °F 56% 29.87 in 10.0 mi Calm Calm - N/A   Unknown
5:36 PM 1.4 °F - -13.0 °F 51% 29.87 in 10.0 mi Calm Calm - N/A   Unknown
5:56 PM 1.4 °F -9.9 °F -9.4 °F 61% 29.88 in 10.0 mi SE 5.8 mph - N/A   Unknown
6:16 PM -0.4 °F -8.3 °F -16.6 °F 46% 29.88 in 10.0 mi South 3.5 mph - N/A   Unknown
6:36 PM 1.4 °F - -11.2 °F 56% 29.89 in 10.0 mi Calm Calm - N/A   Unknown
6:56 PM -0.4 °F -8.3 °F -16.6 °F 46% 29.89 in 10.0 mi West 3.5 mph - N/A   Unknown
7:16 PM 3.2 °F - -4.0 °F 72% 29.89 in 10.0 mi Calm Calm - N/A   Unknown
7:36 PM 3.2 °F -4.2 °F -14.8 °F 43% 29.89 in 10.0 mi NE 3.5 mph - N/A   Unknown
7:56 PM 1.4 °F - -14.8 °F 47% 29.89 in 10.0 mi Calm Calm - N/A   Unknown
8:16 PM -5.8 °F -16.7 °F -20.2 °F 50% 29.90 in 10.0 mi SSE 4.6 mph - N/A   Unknown
8:36 PM -0.4 °F -12.0 °F -9.4 °F 66% 29.91 in 10.0 mi South 5.8 mph - N/A   Unknown
8:56 PM 1.4 °F -11.3 °F -11.2 °F 56% 29.92 in 10.0 mi ESE 6.9 mph - N/A   Unknown
9:16 PM -2.2 °F -16.8 °F -16.6 °F 50% 29.92 in 10.0 mi SSE 8.1 mph - N/A   Unknown
9:36 PM 1.4 °F -6.2 °F -7.6 °F 66% 29.93 in 10.0 mi SE 3.5 mph - N/A   Unknown
9:56 PM -0.4 °F -8.3 °F -20.2 °F 39% 29.93 in 10.0 mi SSW 3.5 mph - N/A   Unknown
10:16 PM -0.4 °F - -9.4 °F 66% 29.93 in 10.0 mi Calm Calm - N/A   Unknown
10:36 PM -0.4 °F -13.4 °F -16.6 °F 46% 29.94 in 10.0 mi South 6.9 mph - N/A   Unknown
10:56 PM -0.4 °F -13.4 °F -9.4 °F 66% 29.94 in 10.0 mi ESE 6.9 mph - N/A   Unknown
11:16 PM -0.4 °F -14.7 °F -16.6 °F 46% 29.95 in 10.0 mi East 8.1 mph - N/A   Unknown
11:36 PM 1.4 °F -15.3 °F -11.2 °F 56% 29.95 in 10.0 mi East 11.5 mph - N/A   Unknown
11:56 PM -0.4 °F -23.8 °F -14.8 °F 51% 29.95 in 10.0 mi East 23.0 mph 28.8 mph N/A   Unknown